Find Kosmos-2117

NORAD ID: 21031 Int'l Des: 1990-114 Owner: UNKS Country: SU operational
LEOCIRCULARPOLAR

Aktuelle Ansicht

3D-Globus wird geladen...

Über Kosmos-2117

Beschreibung wird geladen...

Nächste Überflüge

Passes for default location (London). Set your location on the main map for personalized predictions.

Höhenverlauf

Loading altitude history...

Zweizeiliger Elementsatz

1 21031U 90114D 26150.15016110 .00000031 00000-0 10959-3 0 9992
2 21031 82.5759 208.9137 0009438 107.5398 279.9168 12.65030769635995
Epoch: 30. Mai 2026 • Age: 9 hours

Aktueller Status

Höhe 1437.6 km
Geschwindigkeit 7.14 km/s
Subsatellitenpunkt -80.61°S, 81.38°E
Startdatum 22. Dez. 1990
Alter 35.4 years
Typ other

Technische Details

Klassifizierung Payload
Masse 225.00 kg
Trockenmasse 225.00 kg
Gesamtmasse 225.00 kg
Länge 1.60 m
Durchmesser 0.80 m
Spannweite 7.00 m
Form Cyl + Ant
Hersteller NPOPM
Bus-Typ Strela-3
Phasenstatus In Orbit
Besitzer/Staat UNKS/SU

Most Searched